Gainesville, GA

2:56 AM EST on December 16, 2019 (GMT -0500)
Gilmer Memorial

Weather History for KGVL - August, 2019

Change the Weather History Date:

Monday, August 26, 2019

  Actual Average Record
Temperature  
Mean Temperature 72 °F 77 °F  
Max Temperature 78 °F 86 °F 97 °F (1938)
Min Temperature 66 °F 68 °F 52 °F (1935)
Cooling Degree Days 7 12  
Month to date cooling degree days 386 348  
Year to date cooling degree days 1459 1270  
Since 1 June cooling degree days 1123 1095  
Growing Degree Days 22 (Base 50)    
Moisture  
Dew Point 65 °F    
Average Humidity 82    
Maximum Humidity 100    
Minimum Humidity 64    
Precipitation  
Precipitation 0.15 in 0.13 in 4.14 in (2008)
Month to date precipitation 2.28 3.87  
Year to date precipitation 37.12 35.69  
Sea Level Pressure  
Sea Level Pressure 30.07 in    
Wind  
Wind Speed 9 mph (East)    
Max Wind Speed 16 mph    
Max Gust Speed 21 mph    
Visibility 10 miles    
Events Rain    
T = Trace of Precipitation, MM = Missing Value Source: NWS Daily Summary

Daily Weather History Graph

Daily Weather History Graph

Search for Another Location

Airport or City:

Astronomy

Aug. 26, 2019 Rise Set
Actual Time 7:04 AM EDT 8:09 PM EDT
Civil Twilight 6:38 AM EDT 8:35 PM EDT
Nautical Twilight 6:07 AM EDT 9:06 PM EDT
Astronomical Twilight 5:35 AM EDT 9:37 PM EDT
Moon 2:37 AM EDT (8/26) 5:22 PM EDT (8/26)
Length of Visible Light 13h 56m
Length of Day
13h 05m
Waning Crescent, 19% of the Moon is Illuminated
Aug 26
Waning Crescent
Aug 30
New
Sep 5
First Quarter
Sep 14
Full
Sep 21
Last Quarter

Hourly Weather History & Observations

Time (EDT) Temp. Dew Point Humidity Pressure Visibility Wind Dir Wind Speed Gust Speed Precip Events Conditions
12:53 AM 69.1 °F 64.9 °F 87% 30.09 in 10.0 mi East 9.2 mph - N/A   Overcast
1:53 AM 69.1 °F 64.9 °F 87% 30.07 in 10.0 mi ENE 8.1 mph - N/A   Overcast
2:26 AM 68.0 °F 64.9 °F 90% 30.11 in 10.0 mi East 8.1 mph - 0.00 in   Overcast
2:53 AM 68.0 °F 64.9 °F 90% 30.06 in 10.0 mi East 9.2 mph - 0.00 in   Overcast
3:53 AM 66.9 °F 66.0 °F 97% 30.06 in 10.0 mi East 9.2 mph - 0.00 in Rain Light Rain
4:51 AM 66.2 °F 64.4 °F 94% 30.10 in 10.0 mi East 10.4 mph - 0.00 in   Overcast
4:53 AM 66.9 °F 64.0 °F 90% 30.06 in 10.0 mi East 8.1 mph - 0.00 in   Overcast
5:53 AM 66.9 °F 64.0 °F 90% 30.07 in 10.0 mi East 6.9 mph - N/A   Overcast
6:53 AM 66.0 °F 64.0 °F 93% 30.09 in 10.0 mi East 5.8 mph - 0.00 in Rain Light Rain
7:02 AM 66.0 °F 64.9 °F 96% 30.13 in 10.0 mi East 6.9 mph - 0.00 in Rain Light Rain
7:53 AM 66.0 °F 64.9 °F 96% 30.09 in 10.0 mi ENE 8.1 mph - 0.00 in   Overcast
8:48 AM 66.2 °F 64.4 °F 94% 30.13 in 10.0 mi East 8.1 mph - N/A   Overcast
8:53 AM 66.9 °F 64.9 °F 93% 30.10 in 10.0 mi East 9.2 mph - N/A   Overcast
9:10 AM 68.0 °F 64.9 °F 90% 30.13 in 10.0 mi ENE 9.2 mph - N/A   Overcast
9:53 AM 69.1 °F 63.0 °F 81% 30.10 in 10.0 mi East 9.2 mph - N/A   Overcast
10:30 AM 70.0 °F 62.1 °F 76% 30.13 in 10.0 mi East 13.8 mph - N/A   Overcast
10:53 AM 72.0 °F 63.0 °F 73% 30.09 in 10.0 mi East 15.0 mph - N/A   Mostly Cloudy
11:02 AM 73.0 °F 63.0 °F 71% 30.13 in 10.0 mi East 13.8 mph - N/A   Mostly Cloudy
11:53 AM 73.0 °F 62.1 °F 68% 30.09 in 10.0 mi East 15.0 mph 20.7 mph N/A   Mostly Cloudy
12:04 PM 73.9 °F 62.1 °F 66% 30.13 in 10.0 mi East 10.4 mph 20.7 mph N/A   Mostly Cloudy
12:41 PM 73.0 °F 62.1 °F 68% 30.12 in 10.0 mi East 13.8 mph - N/A   Mostly Cloudy
12:53 PM 75.0 °F 63.0 °F 66% 30.07 in 10.0 mi East 9.2 mph - N/A   Mostly Cloudy
1:53 PM 75.9 °F 63.0 °F 64% 30.06 in 10.0 mi SE 10.4 mph - N/A   Mostly Cloudy
2:53 PM 77.0 °F 64.0 °F 64% 30.04 in 10.0 mi ESE 10.4 mph - N/A   Overcast
3:53 PM 75.9 °F 64.0 °F 67% 30.01 in 10.0 mi ESE 11.5 mph - N/A   Overcast
4:53 PM 77.0 °F 64.9 °F 66% 30.00 in 10.0 mi East 6.9 mph - N/A   Overcast
5:11 PM 75.9 °F 64.9 °F 69% 30.04 in 10.0 mi East 8.1 mph - N/A   Overcast
5:33 PM 75.9 °F 64.9 °F 69% 30.04 in 10.0 mi East 9.2 mph - N/A   Overcast
5:53 PM 75.0 °F 66.0 °F 73% 30.00 in 10.0 mi East 9.2 mph - 0.00 in Rain Light Rain
6:53 PM 75.0 °F 66.0 °F 73% 30.01 in 10.0 mi East 4.6 mph - 0.00 in   Overcast
7:21 PM 71.1 °F 69.1 °F 93% 30.04 in 2.5 mi East 6.9 mph - 0.02 in Rain Light Rain
7:28 PM 70.0 °F 69.1 °F 97% 30.04 in 4.0 mi East 8.1 mph - 0.02 in Rain Light Rain
7:53 PM 70.0 °F 69.1 °F 97% 30.01 in 8.0 mi NE 5.8 mph - 0.02 in Rain Light Rain
8:53 PM 70.0 °F 68.0 °F 93% 30.01 in 10.0 mi ENE 6.9 mph - 0.00 in   Overcast
9:53 PM 70.0 °F 68.0 °F 93% 30.03 in 10.0 mi ENE 6.9 mph - N/A   Overcast
10:53 PM 69.1 °F 68.0 °F 96% 30.04 in 10.0 mi East 8.1 mph - 0.03 in Rain Light Rain
11:53 PM 68.0 °F 68.0 °F 100% 30.04 in 8.0 mi ENE 9.2 mph - 0.08 in Rain Light Rain